Date/Time (UTC),ProbHail,ProbWind,ProbTor,MESH,VIL Density,Flash Rate,Max Flash Density,LJA sigma-level,Max 0-2km AzShear,LLAZ 98th%,MLAZ 98th%,MUCAPE,MLCAPE,CAPE -10C to -30C,MLCIN,SRH 0-1km AGL,EBShear,MeanWind 0-1km AGL,Norm. Sat. Growth Rate,PWAT,WBZ,AvgBeamHgt,size
2019/10/21 02:20,71,88,35,0.65,2.1,36,0.6,0.0,9,7,8,2583,2492,903,23,335,63.6,39.9,0,1.6,9.9,1.4,329
2019/10/21 02:22,84,94,42,0.75,2.1,59,0.88,0.0,9,7,8,2577,2486,904,23,335,63.7,40.0,0,1.6,9.9,1.3,371
2019/10/21 02:24,88,97,66,0.75,2.2,77,0.88,0.0,15,7,7,2582,2492,914,25,336,63.4,39.8,0,1.6,9.9,2.2,695
2019/10/21 02:26,88,97,65,0.75,2.2,77,0.88,0.0,15,7,5,2628,2520,926,28,340,63.0,39.8,0,1.6,9.9,2.4,560
2019/10/21 02:28,88,97,67,0.75,2.2,77,0.88,0.0,14,9,5,2632,2521,927,29,342,62.9,39.8,0,1.6,9.9,2.4,592
2019/10/21 02:30,85,94,63,0.69,2.0,86,0.88,0.0,14,9,7,2663,2529,932,32,349,62.7,40.0,0,1.6,9.9,2.1,617
2019/10/21 02:32,85,94,62,0.68,1.8,87,0.88,0.1,14,9,7,2672,2532,934,33,351,62.7,40.0,0,1.6,10.0,2.1,597
2019/10/21 02:34,85,94,52,0.67,1.9,87,0.88,0.0,12,8,7,2685,2536,938,34,355,62.5,40.1,0,1.6,10.0,2.1,617
2019/10/21 02:36,85,97,66,0.67,1.9,87,0.88,0.0,14,9,8,2706,2541,946,36,362,62.3,40.2,0,1.6,10.1,1.9,648
2019/10/21 02:38,89,97,76,0.77,2.1,87,0.88,0.1,19,9,8,2709,2543,948,37,363,62.3,40.2,0,1.6,10.1,1.9,680
2019/10/21 02:40,85,94,75,0.77,2.1,62,0.88,0.0,19,9,8,2722,2545,951,38,367,62.1,40.3,0,1.6,10.3,1.7,642
2019/10/21 02:42,84,97,82,0.77,2.1,59,0.88,0.3,17,10,9,2735,2537,952,40,372,61.9,40.4,0,1.6,10.5,1.6,644
2019/10/21 02:44,83,94,82,0.75,2.1,59,0.88,0.0,13,10,9,2736,2534,952,41,373,61.8,40.4,0,1.6,10.5,1.5,654
2019/10/21 02:46,83,97,87,0.75,2.1,59,0.88,0.8,16,13,10,2748,2518,953,42,378,61.3,40.5,0,1.6,10.7,1.4,654
2019/10/21 02:48,83,97,85,0.75,2.1,59,0.88,0.7,16,13,10,2748,2501,951,43,380,60.9,40.5,0,1.6,10.8,1.4,736
2019/10/21 02:50,83,94,85,0.71,1.8,71,0.88,3.0,16,13,9,2753,2501,953,43,382,60.7,40.5,0,1.6,10.8,1.4,755
2019/10/21 02:52,82,94,84,0.71,1.8,85,0.88,2.2,16,11,9,2759,2491,952,44,384,60.3,40.5,0,1.6,10.9,1.4,771
2019/10/21 02:54,61,94,86,0.64,1.8,85,0.71,0.0,16,11,9,2367,2201,829,5,408,56.6,48.8,0,1.8,8.9,1.5,838
2019/10/21 02:56,62,92,86,0.57,1.8,85,0.71,0.9,16,11,8,2370,2232,845,6,411,56.9,48.7,0,1.7,9.0,1.7,1138
2019/10/21 02:58,78,95,88,0.73,2.0,123,0.71,3.4,19,12,8,2380,2239,846,6,412,56.8,49.1,0,1.8,9.0,1.7,1200
2019/10/21 03:00,78,95,87,0.73,2.1,123,0.71,0.0,19,12,8,2384,2247,847,7,413,56.8,49.2,0,1.8,9.0,1.7,1236
2019/10/21 03:02,81,95,91,0.73,2.1,123,0.71,0.0,19,12,10,2401,2282,853,6,415,56.8,49.6,0,1.8,9.0,1.8,939
2019/10/21 03:04,89,95,92,0.92,2.4,143,0.63,2.1,18,13,11,2412,2292,851,7,413,56.5,49.9,0,1.8,9.0,1.9,957
2019/10/21 03:06,92,95,92,1.09,2.6,143,0.63,0.0,18,13,11,2414,2293,850,8,413,56.5,50.0,0,1.8,9.0,1.9,1029
2019/10/21 03:08,88,95,92,1.09,2.7,143,0.63,0.7,19,13,11,2426,2289,843,10,410,56.2,50.2,0,1.8,9.1,2.0,1118
2019/10/21 03:10,88,95,92,1.09,2.7,190,0.64,1.7,19,13,11,2430,2289,841,11,408,56.2,50.3,0,1.8,9.1,2.1,1204
2019/10/21 03:12,88,95,92,1.08,3.1,190,0.64,0.0,19,13,11,2433,2296,842,11,408,56.2,50.4,0,1.8,9.1,2.1,1183
2019/10/21 03:14,88,95,92,1.08,3.1,190,0.64,1.2,19,13,11,2458,2303,835,14,402,56.1,50.6,0,1.8,9.4,2.3,1225
2019/10/21 03:16,88,95,93,1.08,3.1,190,0.64,0.0,19,13,12,2458,2303,835,14,402,56.1,50.6,0,1.8,9.4,2.3,1225
2019/10/21 03:18,86,95,93,1.02,2.5,186,0.64,0.0,20,11,11,2462,2303,833,15,401,56.0,50.6,0,1.8,9.4,2.3,1286
2019/10/21 03:20,86,95,93,1.02,2.5,186,0.64,0.8,20,11,11,2473,2308,833,15,400,55.9,50.6,0,1.8,9.5,2.3,1247
2019/10/21 03:22,88,95,92,1.02,2.5,173,0.64,0.0,20,11,10,2497,2292,823,20,395,55.8,50.5,0,1.8,9.8,2.5,1122
2019/10/21 03:24,87,95,87,0.98,2.5,173,0.64,0.0,20,9,10,2497,2292,823,20,395,55.8,50.5,0,1.8,9.8,2.5,1122
2019/10/21 03:26,85,95,83,0.93,3.2,173,0.64,0.1,20,9,10,2506,2262,817,27,390,55.4,50.2,0,1.8,10.0,2.8,1045
2019/10/21 03:28,79,95,83,0.93,3.2,95,0.64,0.0,20,9,7,2506,2262,817,27,390,55.4,50.2,0,1.8,10.0,2.8,1045
2019/10/21 03:30,85,95,82,1.03,3.2,116,0.64,0.5,36,8,7,2499,2222,813,31,390,55.3,49.9,0,1.8,10.0,3.0,1130
2019/10/21 03:32,85,95,61,1.03,3.1,122,0.64,0.2,36,8,7,2492,2164,806,39,389,54.9,49.4,0,1.8,10.1,3.2,1294
2019/10/21 03:34,85,95,61,1.03,3.1,133,0.64,1.5,36,8,7,2492,2164,806,39,389,54.9,49.4,0,1.8,10.1,3.2,1294
2019/10/21 03:36,84,95,62,1.03,3.1,158,0.73,3.6,36,8,8,2492,2141,800,44,389,54.7,49.2,0,1.8,10.2,3.4,1265
2019/10/21 03:38,90,95,50,1.29,3.1,175,0.73,1.9,36,7,7,2476,2108,793,48,390,54.5,48.9,0,1.8,10.3,3.5,1387
2019/10/21 03:40,92,95,32,1.38,3.1,175,0.73,0.0,14,6,7,2481,2122,795,50,391,54.5,48.9,0,1.8,10.3,3.6,1484
2019/10/21 03:42,91,95,17,1.38,3.0,175,0.73,0.5,14,6,7,2434,2029,788,64,392,54.0,48.5,0,1.8,10.6,4.0,1325
2019/10/21 03:44,91,95,19,1.38,3.1,175,0.73,0.0,21,6,6,2402,1964,782,75,395,53.7,47.9,0,1.8,10.6,4.3,1415
2019/10/21 03:46,91,95,19,1.4,3.1,133,0.73,0.0,21,6,6,2402,1964,782,75,395,53.7,47.9,0,1.8,10.6,4.3,1415
2019/10/21 03:48,91,95,13,1.4,3.1,139,0.73,0.5,21,6,6,2380,1919,777,82,398,53.5,47.7,0,1.8,10.5,4.4,1552
2019/10/21 03:50,92,95,9,1.4,3.1,143,0.73,0.2,16,5,7,2356,1866,771,89,401,53.2,47.2,0,1.8,10.4,4.4,1436
2019/10/21 03:52,89,95,9,1.33,3.0,143,0.73,0.0,12,5,6,2184,1645,692,117,410,52.0,46.3,0,1.8,10.2,5.0,934
2019/10/21 03:54,89,95,11,1.33,3.0,143,0.73,0.5,19,5,6,2148,1613,683,124,415,51.8,46.0,0,1.8,10.2,4.9,1042
2019/10/21 03:56,91,95,53,1.37,3.0,165,0.73,2.9,10,6,5,2205,1519,684,7,471,55.0,52.8,0,1.9,9.5,4.7,1003
2019/10/21 03:58,90,95,53,1.39,3.0,165,0.73,0.0,10,6,5,2176,1492,671,9,474,55.0,52.9,0,1.9,9.6,4.6,1023
2019/10/21 04:00,90,95,38,1.39,3.0,165,0.73,0.0,10,6,5,2176,1492,671,9,474,55.0,52.9,0,1.9,9.6,4.6,1023
2019/10/21 04:02,90,95,34,1.39,2.9,165,0.73,0.0,15,5,5,2171,1485,666,10,475,55.0,53.0,0,1.9,9.7,4.6,965
2019/10/21 04:04,90,95,43,1.39,2.9,158,0.73,0.3,12,7,5,2092,1399,638,27,483,54.5,53.0,0,1.9,10.0,4.1,890
2019/10/21 04:06,80,95,43,1.17,2.8,100,0.73,0.0,12,7,5,2092,1399,638,27,483,54.5,53.0,0,1.9,10.0,4.1,890
2019/10/21 04:08,76,92,33,0.96,2.2,138,0.73,1.6,12,7,5,2094,1378,633,32,484,54.3,53.0,0,1.9,10.0,4.0,881
2019/10/21 04:10,68,92,26,0.83,2.2,138,0.71,0.0,12,7,5,2090,1332,624,41,487,53.8,52.7,0,1.9,10.1,3.8,823
2019/10/21 04:12,66,92,18,0.81,2.2,138,0.71,0.8,14,7,5,2100,1282,602,56,492,53.1,52.1,0,1.9,10.3,3.5,920
2019/10/21 04:14,53,94,18,0.69,1.8,161,0.71,1.7,14,7,6,2092,1251,594,62,500,52.9,51.4,0,1.9,10.4,3.1,989
2019/10/21 04:16,53,91,18,0.69,1.7,161,0.71,0.0,14,7,6,2092,1251,594,62,500,52.9,51.4,0,1.9,10.4,3.1,989
2019/10/21 04:18,38,91,17,0.53,1.6,161,0.71,0.0,14,7,5,2092,1244,593,65,502,52.8,51.1,0,1.9,10.4,2.9,1065
2019/10/21 04:20,38,94,13,0.53,1.7,161,0.71,0.0,12,7,5,2093,1238,592,71,503,52.6,50.7,0,1.9,10.4,2.8,1199
2019/10/21 04:22,40,94,9,0.64,1.8,104,0.71,0.0,12,8,6,2117,1215,591,89,508,52.2,50.0,0,1.9,10.5,2.5,1152
2019/10/21 04:24,40,94,10,0.64,1.8,102,0.71,0.0,12,8,5,2117,1215,591,89,508,52.2,50.0,0,1.9,10.5,2.5,1152
2019/10/21 04:26,48,94,10,0.64,1.8,122,0.71,2.3,13,8,6,2120,1183,594,98,506,52.5,49.7,0,1.9,10.4,2.3,1318
2019/10/21 04:28,57,94,16,0.71,1.8,139,0.71,0.7,13,10,7,1886,933,576,114,496,53.0,48.5,0,1.9,10.3,1.5,2006
2019/10/21 04:30,57,94,14,0.71,1.8,139,0.57,0.0,13,10,7,1886,933,576,114,496,53.0,48.5,0,1.9,10.3,1.5,2006
2019/10/21 04:32,57,97,18,0.71,2.1,139,0.57,0.4,13,10,6,1766,922,545,126,491,53.4,47.8,0,1.8,10.3,1.6,2346
2019/10/21 04:34,57,97,19,0.71,2.1,167,0.57,1.3,16,9,8,1828,882,557,128,493,53.2,47.8,0,1.8,10.4,1.5,2062
2019/10/21 04:36,57,97,19,0.72,2.1,167,0.57,0.0,16,9,8,1827,903,541,138,494,53.7,47.1,0,1.8,10.4,1.7,2110
2019/10/21 04:38,57,97,19,0.72,2.1,167,0.57,0.0,16,9,8,1839,922,540,144,498,54.2,46.8,0,1.8,10.4,1.9,2003
2019/10/21 04:40,57,97,19,0.72,2.3,167,0.57,0.7,12,9,8,1829,940,541,148,505,54.9,46.5,0,1.8,10.3,2.0,2012
2019/10/21 04:42,57,97,19,0.7,2.3,137,0.57,0.2,12,9,8,1794,956,538,144,502,55.3,46.4,0,1.8,10.3,2.1,2268
2019/10/21 04:44,57,97,14,0.73,2.3,182,0.57,2.0,12,9,7,1825,999,548,150,515,55.8,45.9,0,1.8,10.3,2.3,1855
2019/10/21 04:46,57,97,14,0.73,2.3,182,0.54,0.0,13,9,7,1790,1016,548,144,514,56.7,45.4,0,1.8,10.2,2.5,2067
2019/10/21 04:48,75,95,14,0.99,2.6,190,0.54,1.9,13,9,8,1797,1017,550,144,520,56.5,45.3,0,1.8,10.2,2.5,1908
2019/10/21 04:50,75,95,14,0.99,2.6,190,0.54,0.0,13,9,8,1779,1041,552,140,523,57.0,44.9,0,1.8,10.2,2.6,1668
2019/10/21 04:52,76,95,23,0.99,2.6,190,0.54,0.1,13,9,6,1782,1063,555,139,527,57.2,44.7,0,1.8,10.2,2.8,1678
2019/10/21 04:54,76,95,71,0.99,2.6,190,0.54,0.3,19,8,8,1606,912,548,11,532,56.2,54.6,0,1.8,9.9,2.9,1879
2019/10/21 04:56,71,95,71,0.85,2.6,138,0.54,0.0,19,8,7,1593,914,547,12,535,56.3,54.6,0,1.8,9.9,2.9,1741
2019/10/21 04:58,76,95,71,0.97,2.7,138,0.54,0.8,13,8,8,1658,934,547,15,537,56.3,54.7,0,1.8,10.0,3.0,2041
2019/10/21 05:00,76,95,58,0.97,2.7,138,0.54,0.0,13,8,8,1618,934,538,16,538,56.4,54.6,0,1.8,9.9,3.0,1857
2019/10/21 05:02,76,95,60,0.97,2.8,138,0.54,0.3,14,8,8,1635,945,535,18,539,56.4,54.6,0,1.8,9.9,3.0,1787
2019/10/21 05:04,76,95,82,0.97,2.9,196,0.54,2.9,19,11,8,1681,990,536,25,535,56.6,54.1,0,1.8,9.9,3.1,1996
2019/10/21 05:06,74,95,81,0.94,2.9,196,0.54,0.0,19,11,8,1703,1016,536,29,532,56.7,53.8,0,1.8,9.9,3.1,1967
2019/10/21 05:08,74,95,81,0.94,2.9,196,0.54,0.0,19,11,8,1705,1016,536,29,532,56.7,53.8,0,1.8,9.9,3.1,1972
2019/10/21 05:10,74,95,80,0.94,2.9,196,0.54,0.0,18,11,8,1724,1040,536,32,530,56.9,53.6,0,1.7,9.9,3.1,1896
2019/10/21 05:12,76,95,82,0.95,3.0,194,0.54,0.5,29,14,9,1756,1071,536,37,524,57.3,53.2,0,1.7,9.9,3.0,1924
2019/10/21 05:14,76,95,81,0.95,3.0,123,0.54,0.0,31,16,7,1762,1097,534,39,519,57.9,52.8,0,1.7,9.9,3.0,1864
2019/10/21 05:16,76,95,80,0.96,3.0,135,0.65,0.6,31,16,9,1756,1132,532,43,515,58.8,52.4,0,1.7,9.9,2.9,1873
2019/10/21 05:18,77,95,76,0.96,2.9,168,0.68,0.9,31,16,9,1740,1204,529,48,503,61.6,51.5,0,1.7,9.8,2.8,1769
2019/10/21 05:20,77,95,76,0.96,2.7,168,0.68,0.0,31,16,8,1740,1204,529,48,503,61.6,51.5,0,1.7,9.8,2.8,1769
2019/10/21 05:22,66,95,72,0.8,2.6,168,0.68,0.5,23,14,9,1708,1296,525,53,493,64.2,50.4,0,1.7,9.8,2.7,1721
2019/10/21 05:24,66,95,68,0.8,2.6,168,0.68,0.0,19,13,9,1682,1328,522,56,489,65.4,49.9,0,1.7,9.8,2.8,1631
2019/10/21 05:26,62,97,68,0.73,2.5,125,0.68,0.4,19,13,9,1682,1328,522,56,489,65.4,49.9,0,1.7,9.8,2.8,1631
2019/10/21 05:28,66,95,67,0.8,2.5,130,0.68,0.5,19,14,9,1674,1349,523,58,489,65.8,49.6,0,1.7,9.8,2.9,1631
2019/10/21 05:30,66,95,65,0.8,2.5,130,0.68,0.0,19,14,8,1661,1360,524,60,489,66.1,49.3,0,1.7,9.8,2.8,1664
2019/10/21 05:32,66,95,63,0.8,2.3,130,0.68,0.5,19,14,8,1645,1368,526,63,488,66.2,48.9,0,1.7,9.7,2.9,1620
2019/10/21 05:34,57,97,49,0.66,2.2,130,0.68,0.0,18,11,7,1703,1353,570,71,501,65.6,49.1,0,1.7,9.8,2.2,1803
2019/10/21 05:36,46,97,48,0.63,2.2,81,0.68,0.0,18,11,7,1694,1360,572,73,499,65.5,48.8,0,1.7,9.7,2.2,1857
2019/10/21 05:38,46,94,32,0.63,1.7,81,0.68,0.0,14,9,8,1694,1360,572,73,499,65.5,48.8,0,1.7,9.7,2.2,1857
2019/10/21 05:40,53,94,25,0.63,1.7,117,0.68,2.0,14,9,8,1636,1381,553,74,486,65.9,48.3,0,1.7,9.7,2.6,1868
2019/10/21 05:42,43,92,40,0.51,1.7,117,0.68,0.0,14,8,11,1640,1383,579,75,489,65.4,48.0,0,1.7,9.7,2.5,1690
2019/10/21 05:44,50,92,48,0.51,1.7,117,0.68,0.0,12,10,10,1704,1363,606,67,509,64.3,48.1,0,1.7,9.7,2.0,1246
2019/10/21 05:46,40,92,48,0.44,1.7,117,0.68,0.0,12,10,7,1704,1363,606,67,509,64.3,48.1,0,1.7,9.7,2.0,1246
2019/10/21 05:48,26,89,40,0.38,1.4,68,0.68,0.3,12,10,7,1740,1351,619,70,523,64.0,48.0,0,1.7,9.9,1.8,1212
2019/10/21 05:50,17,80,28,0.38,1.6,49,0.61,0.0,13,9,8,1764,1346,637,66,537,63.3,47.6,0,1.7,10.3,1.6,1075
2019/10/21 05:52,13,85,23,0.43,2.0,49,0.61,0.0,13,9,8,1872,1346,678,73,540,62.8,48.1,0,1.8,11.0,1.0,1279
2019/10/21 05:54,13,89,27,0.43,2.0,49,0.61,0.4,13,9,9,1883,1341,683,76,546,62.8,48.1,0,1.8,11.0,0.9,1152
2019/10/21 05:56,7,78,67,0.45,2.0,25,0.61,0.0,13,8,9,1529,1281,557,5,589,62.7,55.5,0,1.8,10.9,0.8,864
2019/10/21 05:58,10,78,67,0.49,2.2,24,0.61,0.0,13,8,9,1478,1302,545,4,593,62.9,56.3,0,1.8,10.5,1.1,598
2019/10/21 06:00,12,83,67,0.52,2.2,24,0.55,0.0,13,8,9,1476,1307,545,6,592,62.8,56.3,0,1.8,10.6,1.1,544
2019/10/21 06:02,7,65,46,0.54,2.2,8,0.55,0.0,9,6,11,1492,1316,545,9,592,62.7,55.9,0,1.8,10.8,1.1,408
2019/10/21 06:04,7,65,46,0.54,2.2,8,0.55,0.0,9,6,9,1488,1318,542,11,590,62.7,55.9,0,1.8,10.8,1.2,369
2019/10/21 06:06,10,68,46,0.65,2.2,8,0.55,0.0,8,6,9,1506,1319,541,16,587,62.5,55.7,0,1.8,10.8,1.2,352
2019/10/21 06:08,9,65,37,0.65,2.2,6,0.55,0.0,8,6,10,1521,1322,536,20,582,62.2,55.5,0,1.8,10.8,1.3,322
2019/10/21 06:10,9,68,47,0.65,2.0,6,0.55,0.0,8,6,23,1536,1326,529,24,575,62.1,55.3,0,1.8,10.8,1.4,327
2019/10/21 06:12,9,69,37,0.62,2.2,5,0.43,0.0,7,5,21,1552,1328,523,28,565,61.8,55.1,0,1.8,10.8,1.6,462
2019/10/21 06:14,8,67,37,0.58,2.2,6,0.43,0.0,7,5,7,1561,1330,521,28,565,61.8,55.1,0,1.8,10.7,1.7,317
2019/10/21 06:16,8,67,36,0.58,2.2,6,0.43,0.0,7,5,8,1577,1332,520,31,557,62.0,54.8,0,1.7,10.7,1.8,394
2019/10/21 06:18,5,52,13,0.48,2.1,6,0.43,0.0,7,4,8,1577,1332,520,31,557,62.0,54.8,0,1.7,10.7,1.8,394
2019/10/21 06:20,5,55,12,0.43,2.5,6,0.43,0.0,7,4,5,1548,1325,518,33,545,62.4,54.6,0,1.7,10.5,2.1,472
2019/10/21 06:22,2,60,25,0.43,2.5,2,0.43,0.0,10,6,7,1587,1331,520,37,541,63.6,54.2,0,1.7,10.5,2.2,473
2019/10/21 06:24,5,62,22,0.43,2.5,4,0.43,0.0,10,6,8,1587,1331,520,37,541,63.6,54.2,0,1.7,10.5,2.2,473
2019/10/21 06:26,4,55,16,0.38,2.1,4,0.1,0.0,10,6,6,1546,1299,525,40,535,66.7,53.9,0,1.7,10.3,2.8,584
2019/10/21 06:28,4,50,10,0.38,2.1,4,0.1,0.0,8,4,7,1577,1324,522,36,537,65.0,54.0,0,1.7,10.5,2.4,398
2019/10/21 06:30,4,50,9,0.38,2.1,4,0.14,0.0,8,4,8,1597,1332,531,37,534,66.7,53.4,0,1.7,10.5,2.7,432
2019/10/21 06:32,4,50,11,0.38,2.0,6,0.18,0.0,9,4,8,1564,1320,535,38,532,68.0,53.2,0,1.7,10.4,3.0,467
2019/10/21 06:34,4,50,11,0.39,2.0,6,0.18,0.0,5,4,8,1590,1335,540,38,530,68.4,53.0,0,1.7,10.4,3.0,418
2019/10/21 06:36,5,50,11,0.39,2.0,6,0.18,0.0,5,4,7,1587,1324,556,38,523,70.5,52.6,0,1.7,10.3,3.4,481
2019/10/21 06:38,6,50,7,0.39,2.0,6,0.18,0.0,6,4,4,1594,1325,558,37,521,70.8,52.4,0,1.6,10.3,3.5,393
2019/10/21 06:40,6,42,6,0.37,2.0,3,0.18,0.0,5,4,5,1612,1332,575,35,513,71.3,52.0,0,1.6,10.2,3.7,386
2019/10/21 06:42,1,31,7,0.23,1.7,1,0.18,0.0,5,4,4,1618,1369,586,33,507,71.7,51.5,0,1.7,10.3,3.7,227
2019/10/21 06:44,1,29,6,0.23,1.6,1,0.18,0.0,5,4,4,1621,1368,588,33,506,71.8,51.4,0,1.7,10.3,3.8,221
2019/10/21 06:46,1,3,5,0.15,1.5,1,0.18,0.0,4,3,4,1641,1352,611,30,491,72.4,51.0,0,1.6,10.2,4.1,184
